SCP
0 0 0 0 0 0 0 0 0 0 0 0 0 0 0 0 0 0 0 0 0 0 0 0 0 0 0 0 0 0 0 0 0 0 0 0 0 0 0 0 0 0 0
0 0 0 0 0 0 0 0 0 0 0 0 0 0 0 0 0 0 0 -0 0 0 0 0 -0 -0 0 0 0 0 0 0 0 0 0 0 0 0 0 0 0 0 0
0 0 0 0 0 0 0 0 0 0 0 0 0 0 0 0 0 0 0 0 -0 -0 0 0 0 -0 0 0 0 0 0 0 0 0 0 0 0 0 0 0 0 0 0
0 0 0 0 0 0 0 0 0 0 0 0 0 0 0 0 0 0 0 0 0 0 0 0 0 0 0 0 0 0 0 0 0 0 0 0 0 0 0 0 0 0 0
0 0 0 0 0 0 0 0 0 0 0 0 0 0 0 0 0 0 0 0 0 0 0 0 0 0 0 0 0 0 0 0 0 0 0 0 0 0 0 0 0 0 0
0 0 0 0 0 0 0 0 0 0 0 0 0 0 0 0 0 0 0 0 0 0 0 0 0 0 0 0 0 0 0 0 0 0 0 0 0 0 0 0 0 0 0
0 0 0 0 0 0 0 0 0 0 0 0 0 0 0 0 0 0 0 0 0 0 0 0 0 0 0 0 0 0 0 0 0 0 0 0 0 0 0 0 0 0 0
0 0 0 0 0 0 0 0 0 0 0 0 0 0 0 0 0 0 0 0 0 0 0 0 0 0 0 0 0 0 0 0 0 0 0 0 0 0 0 0 0 0 0
0 0 0 0 0 0 0 0 0 0 0 0 0 0 0 0 0 0 0 0 0 0 0 0 0 0 0 0 0 0 0 0 0 0 0 0 0 0 0 0 0 0 0
0 0 0 0 0 0 0 0 0 0 0 0 0 0 0 0 0 0 0 0 0 0 0 0 0 0 0 0 0 0 0 0 0 0 0 0 0 0 0 0 0 0 0
-0 -0 -0 0 -0 0 0 0 0 0 0 0 0 0 0 0 0 0 0 0 0 0 0 0 0 0 0 0 0 0 0 0 0 0 0 0 0 0 0 0 0 0 0
-0 -0 -0 0 0 0 0 0 0 0 0 0 0 0 0 0 0 0 0 0 0 0 0 0 0 0 0 0 0 0 0 0 0 0 0 0 0 0 0 0 0 0 0
0 0 0 0 0 0 0 0 0 0 0 0 0 0 0 0 0 0 0 0 0 0 0 0 0 0 0 0 0 0 0 0 0 0 0 0 0 0 0 0 0 0 0
0 0 0 0 0 0 0 -0 0 0 0 0 0 0 0 0 0 0 0 0 0 0 0 0 0 0 0 0 0 0 0 0 0 0 0 0 0 0 0 0 0 0 0
-0 -0 -0 -0 0 0 0 0 0 0 0 0 0 0 0 0 0 0 0 0 0 0 0 0 0 0 0 0 0 0 0 0 0 0 0 0 0 0 0 0 0 0 0
-0 0 0 0 0 0 0 0 0 0 0 0 0 0 0 0 0 0 0 0 0 0 0 0 0 0 0 0 0 0 0 0 0 0 0 0 0 0 0 0 0 0 0
-0 0 0 0 0 0 0 0 0 0 0 0 0 0 0 0 0 1 1 1 0 0 0 0 0 0 0 0 0 0 0 0 0 0 0 0 0 0 0 0 0 0 0
0 0 0 0 0 0 0 0 0 0 0 0 0 0 0 0 0 1 1 0 0 0 0 0 0 0 0 0 0 0 0 0 0 0 0 0 0 0 0 0 0 0 0
0 0 0 0 0 0 0 0 0 0 0 0 0 0 0 0 0 0 0 0 0 0 0 0 0 0 0 0 0 0 0 0 0 0 0 0 0 0 0 0 0 0 0
0 0 0 0 0 0 0 0 0 0 0 0 0 0 0 0 0 0 0 0 0 0 0 0 0 0 0 0 0 0 0 0 0 0 0 0 0 0 0 0 0 0 0
0 0 0 0 0 0 0 0 0 0 0 0 0 0 0 0 0 0 0 0 0 0 0 0 0 0 0 0 0 0 0 0 0 0 0 0 0 0 0 0 0 0 0
0 0 0 0 0 0 0 0 0 0 0 0 0 0 0 0 0 0 0 0 0 0 0 0 0 0 0 0 0 0 0 0 0 0 0 0 0 0 0 0 0 0 0
0 0 0 0 0 0 0 0 0 0 0 0 0 0 0 0 0 0 0 0 0 0 0 0 0 0 0 0 0 0 0 0 0 0 0 0 0 0 0 0 0 0 0
0 0 0 0 0 0 0 0 0 0 0 0 0 0 0 0 0 0 0 0 0 0 0 0 0 0 0 0 0 0 0 0 0 0 0 0 0 0 0 0 0 0 0
0 0 0 0 0 0 0 0 0 0 0 0 0 0 0 0 0 0 0 0 0 0 0 0 0 0 0 0 0 0 0 0 0 0 0 0 0 0 0 0 0 0 0
0 0 0 0 0 0 0 0 0 0 0 0 0 0 0 0 0 0 0 0 0 0 0 0 0 0 0 0 0 0 0 0 0 0 0 0 0 0 0 0 0 0 0
Wind_Speed_500mb
55 62 69 64 63 46 49 45 32 34 33 29 28 29 30 28 28 24 28 29 29 25 31 27 22 18 19 18 16 17 19 18 17 15 15 17 19 20 20 20 20 18 19
58 55 59 56 57 45 43 38 35 35 33 32 30 29 28 29 27 25 24 30 25 18 12 10 12 14 13 12 11 8 12 12 11 10 11 13 14 16 17 18 18 18 18
68 57 51 52 52 48 43 38 36 36 34 32 30 28 27 28 27 26 23 22 29 29 21 14 9 7 9 3 3 0 2 5 4 5 5 7 10 12 15 15 15 16 18
70 61 55 49 49 48 46 39 38 36 35 34 31 27 25 25 26 27 24 20 23 23 27 27 23 19 16 15 10 7 8 5 6 6 5 7 9 10 12 13 14 16 16
78 59 56 46 49 49 46 43 39 37 35 34 31 29 27 24 25 23 25 28 25 24 21 25 29 30 28 27 22 18 17 13 11 10 10 9 12 13 15 18 20 21 21
81 67 65 50 46 50 45 41 37 36 34 33 31 29 25 25 25 25 25 25 28 33 30 30 30 36 35 34 35 29 25 26 21 17 19 20 19 19 22 24 28 30 29
68 59 50 53 51 46 42 42 38 36 32 32 30 27 25 27 26 27 27 30 31 33 32 32 35 24 28 32 39 38 35 34 35 35 34 32 32 32 33 36 35 36 36
66 66 47 53 48 42 41 45 42 34 31 33 32 27 24 24 31 40 36 36 34 32 32 36 36 40 35 41 43 43 38 39 37 38 40 44 45 44 46 48 47 49 46
62 67 64 55 57 48 51 50 48 39 34 33 38 26 24 28 38 36 43 39 38 41 35 32 43 46 44 45 41 46 46 45 45 44 44 45 46 48 50 52 53 53 54
76 71 81 65 63 61 53 52 44 47 45 37 37 48 38 19 9 21 23 32 39 46 40 40 42 49 50 52 48 49 49 50 48 48 48 50 52 54 54 53 53 57 62
82 72 88 84 73 64 57 52 50 52 45 45 38 29 40 48 44 31 27 26 33 42 42 40 45 52 54 52 56 59 62 63 55 52 55 57 59 60 61 62 59 59 61
86 83 76 79 86 82 65 66 55 53 48 45 44 43 42 35 38 35 35 40 45 54 58 53 55 63 54 58 60 58 61 59 57 59 60 64 64 65 65 67 67 69 69
90 90 84 80 79 87 73 66 69 64 56 54 51 51 55 51 45 40 41 46 42 50 61 57 61 66 57 64 70 60 68 61 61 63 63 63 66 67 65 68 74 74 70
113 105 97 94 82 87 86 74 70 64 60 66 73 69 59 57 52 50 48 46 46 52 57 62 63 65 70 80 69 72 68 64 68 65 61 60 61 62 67 73 72 70 69
100 90 100 102 93 93 98 87 90 82 89 90 85 79 75 71 63 63 58 59 59 49 48 55 61 56 76 77 76 79 67 69 69 66 60 57 60 67 68 69 66 64 64
88 84 91 107 98 94 106 101 100 99 95 96 86 95 90 85 81 73 72 75 71 69 67 63 73 71 77 81 82 77 69 70 64 66 63 63 65 68 67 63 61 61 61
105 99 101 101 102 103 108 111 104 89 88 87 90 89 89 90 85 80 81 82 71 80 83 96 83 72 86 77 78 76 69 67 68 67 64 67 65 63 62 59 57 57 58
96 90 90 93 102 107 111 110 112 100 95 94 97 90 88 82 83 83 81 88 89 86 90 89 82 87 89 96 82 79 76 71 68 54 59 69 63 58 56 54 55 56 59
81 90 81 91 89 91 94 94 102 105 100 98 96 94 93 89 90 97 101 92 90 114 97 73 86 83 94 86 87 82 80 70 61 57 64 67 63 58 56 54 55 56 59
86 86 95 97 91 94 94 92 93 98 100 101 100 100 99 98 104 110 102 104 110 109 112 95 89 90 101 95 89 81 77 71 62 46 40 47 51 51 51 53 52 55 58
87 89 93 90 99 102 101 99 101 102 102 101 102 102 103 112 115 111 109 111 118 114 106 106 98 98 102 97 97 89 76 55 38 40 42 41 39 42 44 49 51 54 61
91 91 93 96 100 105 106 109 106 98 98 95 95 100 104 103 100 106 98 92 92 109 112 114 104 100 97 100 88 69 57 51 49 40 32 35 37 40 44 47 44 54 61
85 90 93 93 98 99 99 100 100 99 97 86 88 93 93 96 97 91 90 80 86 98 98 89 90 91 92 74 52 51 49 41 35 29 28 37 41 48 46 35 41 58 65
86 86 87 87 87 88 86 86 83 80 84 88 93 99 102 106 96 89 87 85 83 94 92 85 70 67 52 46 46 42 34 27 30 35 41 39 35 45 39 49 60 64 64
79 82 77 73 72 72 71 75 75 80 85 90 94 95 97 103 100 90 85 79 75 70 53 45 43 42 42 39 33 28 23 31 30 28 28 33 38 52 41 57 56 34 44
66 59 63 69 72 73 76 74 70 66 72 85 89 90 93 87 77 70 57 54 52 46 39 40 28 25 25 19 13 21 27 28 29 25 29 39 29 30 38 29 36 35 46
Wind_Direction_500mb
169 168 171 170 167 162 155 161 155 164 166 167 160 147 144 147 146 148 153 155 158 148 151 153 139 135 125 111 99 87 80 76 73 72 67 61 55 49 41 34 30 28 30
174 167 169 173 163 172 165 165 172 169 173 171 164 155 152 151 148 150 163 159 157 158 154 161 149 165 129 100 92 87 77 80 60 52 46 38 37 35 28 23 20 20 18
169 165 166 171 169 178 170 176 176 172 177 174 167 165 161 159 159 158 161 176 166 175 186 207 215 241 220 204 66 344 50 43 43 24 22 14 13 14 14 9 7 7 2
174 173 168 175 179 176 176 181 177 178 184 178 174 177 170 169 171 165 167 187 189 193 194 201 218 238 234 245 277 274 258 280 300 320 330 337 339 342 342 341 346 345 342
189 173 173 177 176 179 177 183 180 185 187 183 182 185 180 180 181 179 184 185 201 201 230 214 217 222 233 242 257 264 260 252 255 266 275 306 312 309 315 319 322 322 327
187 183 182 181 178 174 178 180 185 188 191 186 186 190 188 193 196 194 195 201 205 205 206 239 243 227 227 233 246 256 245 254 262 269 279 285 291 297 303 308 312 313 315
194 198 196 193 185 181 180 187 192 191 191 190 184 192 201 206 207 210 210 212 218 222 219 208 236 245 250 250 245 243 236 234 251 264 281 282 289 294 295 295 299 303 302
194 193 195 197 187 199 196 201 197 194 194 195 192 200 210 222 228 226 219 220 220 220 224 231 228 222 229 255 255 252 248 239 237 249 261 268 279 281 290 295 297 301 302
193 200 191 200 201 196 203 206 200 194 195 204 192 213 219 230 224 225 230 217 225 226 223 236 239 243 238 231 256 253 250 246 241 237 245 254 264 272 278 283 288 289 292
194 213 209 207 210 200 209 208 207 207 201 207 219 212 227 262 249 182 213 234 220 238 243 230 236 256 251 247 231 240 253 251 247 246 247 249 253 258 263 267 273 277 282
206 207 215 217 213 217 214 214 212 212 216 222 223 232 242 237 245 247 235 215 230 239 244 263 263 250 259 250 239 244 242 251 251 250 252 255 257 263 263 261 262 264 269
205 212 212 216 218 216 222 224 221 225 225 233 230 234 233 235 237 239 245 238 244 258 263 264 265 258 249 250 251 239 250 251 253 257 258 258 260 264 267 267 269 277 274
210 220 218 220 222 225 222 228 223 226 228 234 239 242 247 244 238 242 243 244 245 261 261 262 257 248 252 245 240 250 245 252 253 252 255 258 262 268 268 268 273 278 275
215 219 222 224 231 226 226 231 231 234 241 251 251 246 252 250 245 245 247 246 251 256 260 256 251 259 252 238 251 245 249 249 251 251 255 259 265 266 268 272 274 275 275
220 222 228 233 233 230 228 231 234 239 247 255 262 247 250 253 252 254 253 247 247 251 254 260 251 259 257 242 239 250 247 253 250 250 254 260 266 269 270 274 274 273 272
219 221 227 232 235 236 230 230 240 243 250 255 257 248 249 256 263 260 253 252 254 266 258 265 261 263 255 247 241 245 251 251 251 251 254 262 268 270 270 271 271 271 273
222 225 228 234 235 237 232 234 238 243 244 245 245 248 251 257 258 258 253 256 255 272 275 276 250 253 233 240 239 244 243 243 249 252 254 264 269 270 268 268 268 271 275
228 228 229 238 237 236 234 237 241 241 243 243 247 251 255 255 253 254 247 252 269 274 287 258 261 243 243 237 243 242 242 241 245 249 263 270 273 268 264 264 268 272 276
229 224 227 229 230 232 233 237 239 239 240 245 247 248 249 251 252 255 261 254 269 273 276 266 257 244 236 233 232 240 239 238 241 249 261 265 268 263 264 266 269 274 275
225 224 230 231 233 234 236 237 237 240 242 245 248 249 252 252 252 259 262 267 274 269 262 270 255 248 246 243 241 238 238 237 243 243 252 256 264 267 266 268 270 274 278
222 225 225 231 233 235 237 240 240 242 245 249 250 251 251 253 257 263 263 269 271 269 264 260 250 245 242 241 243 237 230 233 238 234 242 254 261 269 267 270 275 279 280
227 225 227 229 231 236 242 243 242 240 242 246 249 251 258 262 264 269 269 267 271 273 260 259 250 251 250 243 238 227 224 222 222 241 257 250 250 258 271 278 279 279 286
229 231 232 233 237 240 244 246 246 245 244 246 251 258 263 264 267 271 269 267 266 256 252 255 251 243 239 232 225 222 226 230 235 229 257 253 254 269 280 279 273 275 289
227 229 232 235 237 241 244 249 253 253 253 257 260 259 256 263 268 267 267 262 260 252 247 247 244 240 229 218 215 224 226 232 237 239 245 262 267 278 271 262 270 284 289
227 229 231 234 236 242 244 244 246 249 253 257 260 262 265 265 266 267 265 262 253 235 229 233 221 218 229 222 223 227 242 246 254 253 259 266 262 277 273 269 292 286 278
225 229 226 225 230 232 240 247 247 250 255 258 260 258 257 256 258 262 262 252 231 212 205 204 206 201 211 223 228 236 232 235 246 266 275 256 261 270 291 275 271 255 272
Wind_Speed_850mb
55 62 69 64 63 46 49 45 32 34 33 29 28 29 30 28 28 24 28 29 29 25 31 27 22 18 19 18 16 17 19 18 17 15 15 17 19 20 20 20 20 18 19
58 55 59 56 57 45 43 38 35 35 33 32 30 29 28 29 27 25 24 30 25 18 12 10 12 14 13 12 11 8 12 12 11 10 11 13 14 16 17 18 18 18 18
68 57 51 52 52 48 43 38 36 36 34 32 30 28 27 28 27 26 23 22 29 29 21 14 9 7 9 3 3 0 2 5 4 5 5 7 10 12 15 15 15 16 18
70 61 55 49 49 48 46 39 38 36 35 34 31 27 25 25 26 27 24 20 23 23 27 27 23 19 16 15 10 7 8 5 6 6 5 7 9 10 12 13 14 16 16
78 59 56 46 49 49 46 43 39 37 35 34 31 29 27 24 25 23 25 28 25 24 21 25 29 30 28 27 22 18 17 13 11 10 10 9 12 13 15 18 20 21 21
81 67 65 50 46 50 45 41 37 36 34 33 31 29 25 25 25 25 25 25 28 33 30 30 30 36 35 34 35 29 25 26 21 17 19 20 19 19 22 24 28 30 29
68 59 50 53 51 46 42 42 38 36 32 32 30 27 25 27 26 27 27 30 31 33 32 32 35 24 28 32 39 38 35 34 35 35 34 32 32 32 33 36 35 36 36
66 66 47 53 48 42 41 45 42 34 31 33 32 27 24 24 31 40 36 36 34 32 32 36 36 40 35 41 43 43 38 39 37 38 40 44 45 44 46 48 47 49 46
62 67 64 55 57 48 51 50 48 39 34 33 38 26 24 28 38 36 43 39 38 41 35 32 43 46 44 45 41 46 46 45 45 44 44 45 46 48 50 52 53 53 54
76 71 81 65 63 61 53 52 44 47 45 37 37 48 38 19 9 21 23 32 39 46 40 40 42 49 50 52 48 49 49 50 48 48 48 50 52 54 54 53 53 57 62
82 72 88 84 73 64 57 52 50 52 45 45 38 29 40 48 44 31 27 26 33 42 42 40 45 52 54 52 56 59 62 63 55 52 55 57 59 60 61 62 59 59 61
86 83 76 79 86 82 65 66 55 53 48 45 44 43 42 35 38 35 35 40 45 54 58 53 55 63 54 58 60 58 61 59 57 59 60 64 64 65 65 67 67 69 69
90 90 84 80 79 87 73 66 69 64 56 54 51 51 55 51 45 40 41 46 42 50 61 57 61 66 57 64 70 60 68 61 61 63 63 63 66 67 65 68 74 74 70
113 105 97 94 82 87 86 74 70 64 60 66 73 69 59 57 52 50 48 46 46 52 57 62 63 65 70 80 69 72 68 64 68 65 61 60 61 62 67 73 72 70 69
100 90 100 102 93 93 98 87 90 82 89 90 85 79 75 71 63 63 58 59 59 49 48 55 61 56 76 77 76 79 67 69 69 66 60 57 60 67 68 69 66 64 64
88 84 91 107 98 94 106 101 100 99 95 96 86 95 90 85 81 73 72 75 71 69 67 63 73 71 77 81 82 77 69 70 64 66 63 63 65 68 67 63 61 61 61
105 99 101 101 102 103 108 111 104 89 88 87 90 89 89 90 85 80 81 82 71 80 83 96 83 72 86 77 78 76 69 67 68 67 64 67 65 63 62 59 57 57 58
96 90 90 93 102 107 111 110 112 100 95 94 97 90 88 82 83 83 81 88 89 86 90 89 82 87 89 96 82 79 76 71 68 54 59 69 63 58 56 54 55 56 59
81 90 81 91 89 91 94 94 102 105 100 98 96 94 93 89 90 97 101 92 90 114 97 73 86 83 94 86 87 82 80 70 61 57 64 67 63 58 56 54 55 56 59
86 86 95 97 91 94 94 92 93 98 100 101 100 100 99 98 104 110 102 104 110 109 112 95 89 90 101 95 89 81 77 71 62 46 40 47 51 51 51 53 52 55 58
87 89 93 90 99 102 101 99 101 102 102 101 102 102 103 112 115 111 109 111 118 114 106 106 98 98 102 97 97 89 76 55 38 40 42 41 39 42 44 49 51 54 61
91 91 93 96 100 105 106 109 106 98 98 95 95 100 104 103 100 106 98 92 92 109 112 114 104 100 97 100 88 69 57 51 49 40 32 35 37 40 44 47 44 54 61
85 90 93 93 98 99 99 100 100 99 97 86 88 93 93 96 97 91 90 80 86 98 98 89 90 91 92 74 52 51 49 41 35 29 28 37 41 48 46 35 41 58 65
86 86 87 87 87 88 86 86 83 80 84 88 93 99 102 106 96 89 87 85 83 94 92 85 70 67 52 46 46 42 34 27 30 35 41 39 35 45 39 49 60 64 64
79 82 77 73 72 72 71 75 75 80 85 90 94 95 97 103 100 90 85 79 75 70 53 45 43 42 42 39 33 28 23 31 30 28 28 33 38 52 41 57 56 34 44
66 59 63 69 72 73 76 74 70 66 72 85 89 90 93 87 77 70 57 54 52 46 39 40 28 25 25 19 13 21 27 28 29 25 29 39 29 30 38 29 36 35 46
Wind_Direction_850mb
169 168 171 170 167 162 155 161 155 164 166 167 160 147 144 147 146 148 153 155 158 148 151 153 139 135 125 111 99 87 80 76 73 72 67 61 55 49 41 34 30 28 30
174 167 169 173 163 172 165 165 172 169 173 171 164 155 152 151 148 150 163 159 157 158 154 161 149 165 129 100 92 87 77 80 60 52 46 38 37 35 28 23 20 20 18
169 165 166 171 169 178 170 176 176 172 177 174 167 165 161 159 159 158 161 176 166 175 186 207 215 241 220 204 66 344 50 43 43 24 22 14 13 14 14 9 7 7 2
174 173 168 175 179 176 176 181 177 178 184 178 174 177 170 169 171 165 167 187 189 193 194 201 218 238 234 245 277 274 258 280 300 320 330 337 339 342 342 341 346 345 342
189 173 173 177 176 179 177 183 180 185 187 183 182 185 180 180 181 179 184 185 201 201 230 214 217 222 233 242 257 264 260 252 255 266 275 306 312 309 315 319 322 322 327
187 183 182 181 178 174 178 180 185 188 191 186 186 190 188 193 196 194 195 201 205 205 206 239 243 227 227 233 246 256 245 254 262 269 279 285 291 297 303 308 312 313 315
194 198 196 193 185 181 180 187 192 191 191 190 184 192 201 206 207 210 210 212 218 222 219 208 236 245 250 250 245 243 236 234 251 264 281 282 289 294 295 295 299 303 302
194 193 195 197 187 199 196 201 197 194 194 195 192 200 210 222 228 226 219 220 220 220 224 231 228 222 229 255 255 252 248 239 237 249 261 268 279 281 290 295 297 301 302
193 200 191 200 201 196 203 206 200 194 195 204 192 213 219 230 224 225 230 217 225 226 223 236 239 243 238 231 256 253 250 246 241 237 245 254 264 272 278 283 288 289 292
194 213 209 207 210 200 209 208 207 207 201 207 219 212 227 262 249 182 213 234 220 238 243 230 236 256 251 247 231 240 253 251 247 246 247 249 253 258 263 267 273 277 282
206 207 215 217 213 217 214 214 212 212 216 222 223 232 242 237 245 247 235 215 230 239 244 263 263 250 259 250 239 244 242 251 251 250 252 255 257 263 263 261 262 264 269
205 212 212 216 218 216 222 224 221 225 225 233 230 234 233 235 237 239 245 238 244 258 263 264 265 258 249 250 251 239 250 251 253 257 258 258 260 264 267 267 269 277 274
210 220 218 220 222 225 222 228 223 226 228 234 239 242 247 244 238 242 243 244 245 261 261 262 257 248 252 245 240 250 245 252 253 252 255 258 262 268 268 268 273 278 275
215 219 222 224 231 226 226 231 231 234 241 251 251 246 252 250 245 245 247 246 251 256 260 256 251 259 252 238 251 245 249 249 251 251 255 259 265 266 268 272 274 275 275
220 222 228 233 233 230 228 231 234 239 247 255 262 247 250 253 252 254 253 247 247 251 254 260 251 259 257 242 239 250 247 253 250 250 254 260 266 269 270 274 274 273 272
219 221 227 232 235 236 230 230 240 243 250 255 257 248 249 256 263 260 253 252 254 266 258 265 261 263 255 247 241 245 251 251 251 251 254 262 268 270 270 271 271 271 273
222 225 228 234 235 237 232 234 238 243 244 245 245 248 251 257 258 258 253 256 255 272 275 276 250 253 233 240 239 244 243 243 249 252 254 264 269 270 268 268 268 271 275
228 228 229 238 237 236 234 237 241 241 243 243 247 251 255 255 253 254 247 252 269 274 287 258 261 243 243 237 243 242 242 241 245 249 263 270 273 268 264 264 268 272 276
229 224 227 229 230 232 233 237 239 239 240 245 247 248 249 251 252 255 261 254 269 273 276 266 257 244 236 233 232 240 239 238 241 249 261 265 268 263 264 266 269 274 275
225 224 230 231 233 234 236 237 237 240 242 245 248 249 252 252 252 259 262 267 274 269 262 270 255 248 246 243 241 238 238 237 243 243 252 256 264 267 266 268 270 274 278
222 225 225 231 233 235 237 240 240 242 245 249 250 251 251 253 257 263 263 269 271 269 264 260 250 245 242 241 243 237 230 233 238 234 242 254 261 269 267 270 275 279 280
227 225 227 229 231 236 242 243 242 240 242 246 249 251 258 262 264 269 269 267 271 273 260 259 250 251 250 243 238 227 224 222 222 241 257 250 250 258 271 278 279 279 286
229 231 232 233 237 240 244 246 246 245 244 246 251 258 263 264 267 271 269 267 266 256 252 255 251 243 239 232 225 222 226 230 235 229 257 253 254 269 280 279 273 275 289
227 229 232 235 237 241 244 249 253 253 253 257 260 259 256 263 268 267 267 262 260 252 247 247 244 240 229 218 215 224 226 232 237 239 245 262 267 278 271 262 270 284 289
227 229 231 234 236 242 244 244 246 249 253 257 260 262 265 265 266 267 265 262 253 235 229 233 221 218 229 222 223 227 242 246 254 253 259 266 262 277 273 269 292 286 278
225 229 226 225 230 232 240 247 247 250 255 258 260 258 257 256 258 262 262 252 231 212 205 204 206 201 211 223 228 236 232 235 246 266 275 256 261 270 291 275 271 255 272